Location: Ernez
(36.4595°N, 29.8755°E)
Time: 09:44:29
(UTC+00:00)

ARIANE 5 R/B - Pass Details

Date: 13 November 2025
Orbit: 746 x 792 km, 98.8° (Epoch: 05 December)

Event Time Altitude Azimuth Distance (km) Brightness Sun altitude
Rises 15:39:13 0° 166° (SSE) 3,182 5.7 -9.6°
Reaches altitude 10° 15:41:30 10° 166° (SSE) 2,258 5.0 -10.0°
Maximum altitude 15:46:28 87° 256° (WSW) 752 2.5 -11.0°
Drops below altitude 10° 15:51:28 10° 346° (NNW) 2,270 5.0 -12.0°
Sets 15:53:45 0° 347° (NNW) 3,199 5.7 -12.4°
